site,time,unit,value
Watnall,10/11/2023 00:00:00,MW,2.0294472
Watnall,10/11/2023 00:05:00,MW,1.9020235
Watnall,10/11/2023 00:10:00,MW,1.95442696
Watnall,10/11/2023 00:15:00,MW,1.8601251
Watnall,10/11/2023 00:20:00,MW,1.8250090399999999
Watnall,10/11/2023 00:25:00,MW,1.8978009999999998
Watnall,10/11/2023 00:30:00,MW,2.0129719
Watnall,10/11/2023 00:35:00,MW,2.3245708
Watnall,10/11/2023 00:40:00,MW,1.6106311
Watnall,10/11/2023 00:45:00,MW,1.6060942
Watnall,10/11/2023 00:50:00,MW,1.52993044
Watnall,10/11/2023 00:55:00,MW,1.59220544
Watnall,10/11/2023 01:00:00,MW,2.0557451
Watnall,10/11/2023 01:05:00,MW,2.3427899
Watnall,10/11/2023 01:10:00,MW,2.2964332
Watnall,10/11/2023 01:15:00,MW,2.4918038
Watnall,10/11/2023 01:20:00,MW,2.3975372999999998
Watnall,10/11/2023 01:25:00,MW,2.6229449000000002
Watnall,10/11/2023 01:30:00,MW,2.6376416999999996
Watnall,10/11/2023 01:35:00,MW,2.6786499
Watnall,10/11/2023 01:40:00,MW,2.9563156
Watnall,10/11/2023 01:45:00,MW,2.9444933000000004
Watnall,10/11/2023 01:50:00,MW,3.1164969
Watnall,10/11/2023 01:55:00,MW,3.0315149999999997
Watnall,10/11/2023 02:00:00,MW,2.8983213
Watnall,10/11/2023 02:05:00,MW,2.8788776
Watnall,10/11/2023 02:10:00,MW,2.967549
Watnall,10/11/2023 02:15:00,MW,2.7591275
Watnall,10/11/2023 02:20:00,MW,2.7956031
Watnall,10/11/2023 02:25:00,MW,2.8347555
Watnall,10/11/2023 02:30:00,MW,2.6803603000000003
Watnall,10/11/2023 02:35:00,MW,2.3113704999999998
Watnall,10/11/2023 02:40:00,MW,2.29028185
Watnall,10/11/2023 02:45:00,MW,2.3288068
Watnall,10/11/2023 02:50:00,MW,2.4497396
Watnall,10/11/2023 02:55:00,MW,2.3803193
Watnall,10/11/2023 03:00:00,MW,2.2114721299999998
Watnall,10/11/2023 03:05:00,MW,2.1407081
Watnall,10/11/2023 03:10:00,MW,2.0982792
Watnall,10/11/2023 03:15:00,MW,2.03101935
Watnall,10/11/2023 03:20:00,MW,2.0421737
Watnall,10/11/2023 03:25:00,MW,2.0714817500000002
Watnall,10/11/2023 03:30:00,MW,2.0149974999999998
Watnall,10/11/2023 03:35:00,MW,2.2358047
Watnall,10/11/2023 03:40:00,MW,2.5514918
Watnall,10/11/2023 03:45:00,MW,2.254635
Watnall,10/11/2023 03:50:00,MW,2.7255735999999997
Watnall,10/11/2023 03:55:00,MW,2.6225717
Watnall,10/11/2023 04:00:00,MW,2.8746066
Watnall,10/11/2023 04:05:00,MW,2.5333981999999997
Watnall,10/11/2023 04:10:00,MW,2.5152058999999998
Watnall,10/11/2023 04:15:00,MW,2.2449974
Watnall,10/11/2023 04:20:00,MW,2.1386469
Watnall,10/11/2023 04:25:00,MW,2.4427874
Watnall,10/11/2023 04:30:00,MW,2.5099286000000003
Watnall,10/11/2023 04:35:00,MW,2.032839
Watnall,10/11/2023 04:40:00,MW,2.06165777
Watnall,10/11/2023 04:45:00,MW,2.34130246
Watnall,10/11/2023 04:50:00,MW,2.3493678
Watnall,10/11/2023 04:55:00,MW,2.4506893
Watnall,10/11/2023 05:00:00,MW,2.3694721
Watnall,10/11/2023 05:05:00,MW,3.0538727999999997
Watnall,10/11/2023 05:10:00,MW,2.7533704
Watnall,10/11/2023 05:15:00,MW,2.25520324
Watnall,10/11/2023 05:20:00,MW,2.6238916999999997
Watnall,10/11/2023 05:25:00,MW,2.5674228
Watnall,10/11/2023 05:30:00,MW,2.6656741999999998
Watnall,10/11/2023 05:35:00,MW,2.6764488
Watnall,10/11/2023 05:40:00,MW,2.8426335
Watnall,10/11/2023 05:45:00,MW,2.9432112999999998
Watnall,10/11/2023 05:50:00,MW,2.9339895
Watnall,10/11/2023 05:55:00,MW,3.1985904
Watnall,10/11/2023 06:00:00,MW,3.4598003
Watnall,10/11/2023 06:05:00,MW,3.5119838999999997
Watnall,10/11/2023 06:10:00,MW,3.6122159
Watnall,10/11/2023 06:15:00,MW,3.5254503
Watnall,10/11/2023 06:20:00,MW,3.7615871000000003
Watnall,10/11/2023 06:25:00,MW,3.805574
Watnall,10/11/2023 06:30:00,MW,3.9819256999999997
Watnall,10/11/2023 06:35:00,MW,3.6989632
Watnall,10/11/2023 06:40:00,MW,3.7472762
Watnall,10/11/2023 06:45:00,MW,3.9591288999999996
Watnall,10/11/2023 06:50:00,MW,4.1023715
Watnall,10/11/2023 06:55:00,MW,4.0091299
Watnall,10/11/2023 07:00:00,MW,4.1369336
Watnall,10/11/2023 07:05:00,MW,4.0330536
Watnall,10/11/2023 07:10:00,MW,4.1806217
Watnall,10/11/2023 07:15:00,MW,4.0753417
Watnall,10/11/2023 07:20:00,MW,3.5468272
Watnall,10/11/2023 07:25:00,MW,3.7804186
Watnall,10/11/2023 07:30:00,MW,3.2099952
Watnall,10/11/2023 07:35:00,MW,4.029378100000001
Watnall,10/11/2023 07:40:00,MW,4.0693721
Watnall,10/11/2023 07:45:00,MW,3.5936154
Watnall,10/11/2023 07:50:00,MW,4.0623466
Watnall,10/11/2023 07:55:00,MW,4.6583123
Watnall,10/11/2023 08:00:00,MW,4.4703629
Watnall,10/11/2023 08:05:00,MW,4.5407078
Watnall,10/11/2023 08:10:00,MW,4.6390384000000005
Watnall,10/11/2023 08:15:00,MW,4.8417797
Watnall,10/11/2023 08:20:00,MW,5.1429069
Watnall,10/11/2023 08:25:00,MW,4.982256899999999
Watnall,10/11/2023 08:30:00,MW,4.7137752
Watnall,10/11/2023 08:35:00,MW,5.2602962
Watnall,10/11/2023 08:40:00,MW,4.9447758
Watnall,10/11/2023 08:45:00,MW,4.9909608
Watnall,10/11/2023 08:50:00,MW,5.2659933
Watnall,10/11/2023 08:55:00,MW,5.1951699
Watnall,10/11/2023 09:00:00,MW,5.2200296999999996
Watnall,10/11/2023 09:05:00,MW,5.2282429
Watnall,10/11/2023 09:10:00,MW,4.929435
Watnall,10/11/2023 09:15:00,MW,5.1177093
Watnall,10/11/2023 09:20:00,MW,5.0310707
Watnall,10/11/2023 09:25:00,MW,4.910036
Watnall,10/11/2023 09:30:00,MW,4.6659883
Watnall,10/11/2023 09:35:00,MW,4.8773432
Watnall,10/11/2023 09:40:00,MW,4.8728866
Watnall,10/11/2023 09:45:00,MW,4.8672619
Watnall,10/11/2023 09:50:00,MW,5.0029167999999995
Watnall,10/11/2023 09:55:00,MW,4.878542100000001
Watnall,10/11/2023 10:00:00,MW,5.1303394
Watnall,10/11/2023 10:05:00,MW,4.748117199999999
Watnall,10/11/2023 10:10:00,MW,4.6607516
Watnall,10/11/2023 10:15:00,MW,4.5731831
Watnall,10/11/2023 10:20:00,MW,5.1417916
Watnall,10/11/2023 10:25:00,MW,4.758509800000001
Watnall,10/11/2023 10:30:00,MW,4.6580736
Watnall,10/11/2023 10:35:00,MW,4.8726584
Watnall,10/11/2023 10:40:00,MW,4.47213
Watnall,10/11/2023 10:45:00,MW,4.9572733
Watnall,10/11/2023 10:50:00,MW,4.6676617
Watnall,10/11/2023 10:55:00,MW,5.1896454
Watnall,10/11/2023 11:00:00,MW,4.570910400000001
Watnall,10/11/2023 11:05:00,MW,4.3189429
Watnall,10/11/2023 11:10:00,MW,4.799146199999999
Watnall,10/11/2023 11:15:00,MW,4.3329578
Watnall,10/11/2023 11:20:00,MW,4.6047915
Watnall,10/11/2023 11:25:00,MW,4.4362519
Watnall,10/11/2023 11:30:00,MW,4.2869196
Watnall,10/11/2023 11:35:00,MW,4.7280285
Watnall,10/11/2023 11:40:00,MW,4.336314
Watnall,10/11/2023 11:45:00,MW,4.6846773
Watnall,10/11/2023 11:50:00,MW,4.2314212
Watnall,10/11/2023 11:55:00,MW,4.1221227
Watnall,10/11/2023 12:00:00,MW,4.888972300000001
Watnall,10/11/2023 12:05:00,MW,4.6701403
Watnall,10/11/2023 12:10:00,MW,4.9948037
Watnall,10/11/2023 12:15:00,MW,5.2064497
Watnall,10/11/2023 12:20:00,MW,5.1764285
Watnall,10/11/2023 12:25:00,MW,4.9066247
Watnall,10/11/2023 12:30:00,MW,4.7325253
Watnall,10/11/2023 12:35:00,MW,4.5893066000000005
Watnall,10/11/2023 12:40:00,MW,4.7540516
Watnall,10/11/2023 12:45:00,MW,4.4889115
Watnall,10/11/2023 12:50:00,MW,4.6996115
Watnall,10/11/2023 12:55:00,MW,4.6892474
Watnall,10/11/2023 13:00:00,MW,4.922212399999999
Watnall,10/11/2023 13:05:00,MW,5.1387024
Watnall,10/11/2023 13:10:00,MW,5.0670105
Watnall,10/11/2023 13:15:00,MW,5.089278
Watnall,10/11/2023 13:20:00,MW,5.1878277
Watnall,10/11/2023 13:25:00,MW,5.4063038
Watnall,10/11/2023 13:30:00,MW,5.3336086
Watnall,10/11/2023 13:35:00,MW,5.249316500000001
Watnall,10/11/2023 13:40:00,MW,5.5879978999999995
Watnall,10/11/2023 13:45:00,MW,5.5216509
Watnall,10/11/2023 13:50:00,MW,5.4826896000000005
Watnall,10/11/2023 13:55:00,MW,5.3927706
Watnall,10/11/2023 14:00:00,MW,5.4295978
Watnall,10/11/2023 14:05:00,MW,5.210931
Watnall,10/11/2023 14:10:00,MW,5.351212
Watnall,10/11/2023 14:15:00,MW,5.514858500000001
Watnall,10/11/2023 14:20:00,MW,5.5549942
Watnall,10/11/2023 14:25:00,MW,5.6041121
Watnall,10/11/2023 14:30:00,MW,5.5317246
Watnall,10/11/2023 14:35:00,MW,5.5192521
Watnall,10/11/2023 14:40:00,MW,5.5748578
Watnall,10/11/2023 14:45:00,MW,5.3577025
Watnall,10/11/2023 14:50:00,MW,5.3711746
Watnall,10/11/2023 14:55:00,MW,5.1651166
Watnall,10/11/2023 15:00:00,MW,5.447939
Watnall,10/11/2023 15:05:00,MW,5.7522908
Watnall,10/11/2023 15:10:00,MW,5.5914833
Watnall,10/11/2023 15:15:00,MW,5.4108841000000005
Watnall,10/11/2023 15:20:00,MW,5.5022304
Watnall,10/11/2023 15:25:00,MW,5.7150276
Watnall,10/11/2023 15:30:00,MW,5.8777356
Watnall,10/11/2023 15:35:00,MW,5.8449059000000005
Watnall,10/11/2023 15:40:00,MW,5.9763506
Watnall,10/11/2023 15:45:00,MW,6.0513508
Watnall,10/11/2023 15:50:00,MW,6.1756127
Watnall,10/11/2023 15:55:00,MW,6.2606918
Watnall,10/11/2023 16:00:00,MW,6.1020612
Watnall,10/11/2023 16:05:00,MW,5.955228099999999
Watnall,10/11/2023 16:10:00,MW,5.7826363999999995
Watnall,10/11/2023 16:15:00,MW,5.8792665
Watnall,10/11/2023 16:20:00,MW,5.7697140000000005
Watnall,10/11/2023 16:25:00,MW,5.6486707
Watnall,10/11/2023 16:30:00,MW,5.7517686
Watnall,10/11/2023 16:35:00,MW,5.6645319
Watnall,10/11/2023 16:40:00,MW,5.689219899999999
Watnall,10/11/2023 16:45:00,MW,5.5925968
Watnall,10/11/2023 16:50:00,MW,5.8346827
Watnall,10/11/2023 16:55:00,MW,5.655638700000001
Watnall,10/11/2023 17:00:00,MW,5.530219799999999
Watnall,10/11/2023 17:05:00,MW,5.7204451
Watnall,10/11/2023 17:10:00,MW,5.8044145
Watnall,10/11/2023 17:15:00,MW,5.7889921
Watnall,10/11/2023 17:20:00,MW,5.5495703
Watnall,10/11/2023 17:25:00,MW,5.6666615
Watnall,10/11/2023 17:30:00,MW,5.5898383
Watnall,10/11/2023 17:35:00,MW,5.6158636
Watnall,10/11/2023 17:40:00,MW,5.7187369
Watnall,10/11/2023 17:45:00,MW,5.7364031
Watnall,10/11/2023 17:50:00,MW,5.7500294
Watnall,10/11/2023 17:55:00,MW,5.762732099999999
Watnall,10/11/2023 18:00:00,MW,5.83896
Watnall,10/11/2023 18:05:00,MW,5.9053416
Watnall,10/11/2023 18:10:00,MW,5.8569131
Watnall,10/11/2023 18:15:00,MW,5.8932068
Watnall,10/11/2023 18:20:00,MW,5.714851100000001
Watnall,10/11/2023 18:25:00,MW,5.6401987
Watnall,10/11/2023 18:30:00,MW,5.6364246
Watnall,10/11/2023 18:35:00,MW,5.7013298
Watnall,10/11/2023 18:40:00,MW,5.5797231
Watnall,10/11/2023 18:45:00,MW,5.4573405
Watnall,10/11/2023 18:50:00,MW,5.5856788
Watnall,10/11/2023 18:55:00,MW,5.7460828
Watnall,10/11/2023 19:00:00,MW,5.7106742
Watnall,10/11/2023 19:05:00,MW,5.863106999999999
Watnall,10/11/2023 19:10:00,MW,5.777246
Watnall,10/11/2023 19:15:00,MW,5.6161712999999995
Watnall,10/11/2023 19:20:00,MW,5.6387201000000005
Watnall,10/11/2023 19:25:00,MW,5.6032691
Watnall,10/11/2023 19:30:00,MW,5.6039562
Watnall,10/11/2023 19:35:00,MW,5.575692399999999
Watnall,10/11/2023 19:40:00,MW,5.4804824
Watnall,10/11/2023 19:45:00,MW,5.433923500000001
Watnall,10/11/2023 19:50:00,MW,5.155225700000001
Watnall,10/11/2023 19:55:00,MW,4.8634715
Watnall,10/11/2023 20:00:00,MW,4.3015206
Watnall,10/11/2023 20:05:00,MW,4.6839114
Watnall,10/11/2023 20:10:00,MW,4.8249602
Watnall,10/11/2023 20:15:00,MW,4.7122351
Watnall,10/11/2023 20:20:00,MW,4.8001992
Watnall,10/11/2023 20:25:00,MW,4.910728199999999
Watnall,10/11/2023 20:30:00,MW,4.9399642
Watnall,10/11/2023 20:35:00,MW,4.8327256
Watnall,10/11/2023 20:40:00,MW,4.7353828
Watnall,10/11/2023 20:45:00,MW,4.6468247
Watnall,10/11/2023 20:50:00,MW,4.655199
Watnall,10/11/2023 20:55:00,MW,4.5946414
Watnall,10/11/2023 21:00:00,MW,4.7725451
Watnall,10/11/2023 21:05:00,MW,4.6309736
Watnall,10/11/2023 21:10:00,MW,4.6535893
Watnall,10/11/2023 21:15:00,MW,4.6340538
Watnall,10/11/2023 21:20:00,MW,4.5974912
Watnall,10/11/2023 21:25:00,MW,4.6443703
Watnall,10/11/2023 21:30:00,MW,4.5699398
Watnall,10/11/2023 21:35:00,MW,4.5201714
Watnall,10/11/2023 21:40:00,MW,4.5920068999999994
Watnall,10/11/2023 21:45:00,MW,4.5389938
Watnall,10/11/2023 21:50:00,MW,4.5787518
Watnall,10/11/2023 21:55:00,MW,4.5712731
Watnall,10/11/2023 22:00:00,MW,4.542757
Watnall,10/11/2023 22:05:00,MW,4.5046096
Watnall,10/11/2023 22:10:00,MW,4.432790300000001
Watnall,10/11/2023 22:15:00,MW,4.3411178
Watnall,10/11/2023 22:20:00,MW,4.267576399999999
Watnall,10/11/2023 22:25:00,MW,4.2424084
Watnall,10/11/2023 22:30:00,MW,4.1583955
Watnall,10/11/2023 22:35:00,MW,4.149547500000001
Watnall,10/11/2023 22:40:00,MW,4.0787559
Watnall,10/11/2023 22:45:00,MW,4.0862903
Watnall,10/11/2023 22:50:00,MW,4.004353699999999
Watnall,10/11/2023 22:55:00,MW,4.0281064
Watnall,10/11/2023 23:00:00,MW,4.0172194
Watnall,10/11/2023 23:05:00,MW,4.0015336
Watnall,10/11/2023 23:10:00,MW,4.0087474
Watnall,10/11/2023 23:15:00,MW,4.0046257999999995
Watnall,10/11/2023 23:20:00,MW,4.0020458
Watnall,10/11/2023 23:25:00,MW,3.963409
Watnall,10/11/2023 23:30:00,MW,3.8890269
Watnall,10/11/2023 23:35:00,MW,3.8405884
Watnall,10/11/2023 23:40:00,MW,3.8825326000000002
Watnall,10/11/2023 23:45:00,MW,3.888484
Watnall,10/11/2023 23:50:00,MW,3.8448564999999997
Watnall,10/11/2023 23:55:00,MW,3.7411848
